Regional Weather Roundup
Issued by NWS Charleston, WV

Home | Current Version | Previous Version | Graphics & Text | Print | Product List | Glossary On
Versions: 1 2 3 4 5 6 7 8 9 10 11 12 13 14 15 16 17 18 19 20 21 22 23 24 25 26 27 28 29 30 31 32 33 34 35 36 37 38 39 40 41 42 43 44 45 46 47 48 49 50
433
ASUS41 KRLX 121710
RWRRLX
West Virginia Regional Weather Roundup
National Weather Service Charleston WV
1200 PM EST TUE DEC 12 2017

Note: "fair" indicates few or no clouds below 12,000 feet with no
significant weather and/or obstructions to visibility.

WVZ003-121800-
Northern Panhandle of West Virginia

CITY           SKY/WX    TMP DP  RH WIND       PRES   REMARKS
WHEELING       CLOUDY    27  16  63 W18G30    29.71R
$$

WVZ009-121800-
Northwest West Virginia

CITY           SKY/WX    TMP DP  RH WIND       PRES   REMARKS
PARKERSBURG    CLOUDY    30  19  63 NW16G31   29.82R
$$

WVZ006-121800-
Western West Virginia

CITY           SKY/WX    TMP DP  RH WIND       PRES   REMARKS
HUNTINGTON     SNOW      28  24  85 NW15G30   29.86R VSB 1/2
$$

WVZ015-121800-
West Central West Virginia

CITY           SKY/WX    TMP DP  RH WIND       PRES   REMARKS
CHARLESTON     LGT SNOW  32  28  85 NW18G29   29.78F VSB 1
$$

WVZ022-031-121800-
North Central West Virginia

CITY           SKY/WX    TMP DP  RH WIND       PRES   REMARKS
CLARKSBURG     LGT SNOW  31  25  78 NW16G25   29.68F VSB 1
MORGANTOWN     LGT SNOW  30  24  78 NW9       29.67F
$$

WVZ025-035-042-045-121800-
Southern West Virginia

CITY           SKY/WX    TMP DP  RH WIND       PRES   REMARKS
BECKLEY        LGT SNOW  30  27  88 NW12G21   29.67F VSB 3/4
LOGAN          LGT SNOW  32  28  86 VRB7G16   29.76F
BLUEFIELD      LGT SNOW  30  26  85 NW12G20   29.68F FOG
LEWISBURG      CLOUDY    34  27  74 NW15G22   29.65F
$$

WVZ047-121800-
Northern Mountains of West Virginia

CITY           SKY/WX    TMP DP  RH WIND       PRES   REMARKS
ELKINS         SNOW      29  24  82 NW15G24   29.63F VSB 1/2
$$

WVZ052-121800-
Eastern Panhandle of West Virginia

CITY           SKY/WX    TMP DP  RH WIND       PRES   REMARKS
MARTINSBURG    CLOUDY    43  27  53 W13       29.56F
PETERSBURG     CLOUDY    38  24  57 W9G17     29.62F
$$




USA.gov is the U.S. government's official web portal to all federal, state and local government web resources and services.